User: anonymous   Login
Location: Unspecified
(0.0000°N, 0.0000°E)
Time: 15:14:21
(UTC+00:00)
Language:

AUBIESAT-1 - Orbit

View from above orbital plane
View from above orbital plane
View from above satellite
View from above satellite

Ground track
Ground track

The orbit data is extracted from the following two-line orbital elements,

1 37854U 11061E   14353.33209390  .00023486  00000-0  14503-2 0  9900
2 37854 101.7074 114.1708 0204291 236.3150 146.7373 14.94179404170326
Epoch (UTC): 19 December 2014 07:58:12
Eccentricity: 0.0204291
inclination: 101.7074°
perigee height: 442 km
apogee height: 727 km
right ascension of ascending node: 114.1708°
argument of perigee: 236.3150°
revolutions per day: 14.94179404
mean anomaly at epoch: 146.7373°
orbit number at epoch: 17032

The dashed part of the orbit path shows where the satellite is in the earth's shadow,  

DLR